CW9825 Weather Reports


time (UTC)temp
F
wind
direction
speed
knots
gust
knots
rain 1hr
in
rain 24hr
in
rain mn
in
humidity
%
barometer
mb
20210927064535 55 13 0.0 1.7 0.00 0.00 0.00 79 1009.0
20210927064025 55 13 0.0 1.7 0.00 0.00 0.00 78 1008.9
20210927063551 55 13 0.0 2.6 0.00 0.00 0.00 77 1008.8
20210927063044 55 13 0.9 3.5 0.00 0.00 0.00 77 1008.8
20210927062537 55 13 0.9 3.5 0.00 0.00 0.00 77 1008.7
20210927062022 55 13 0.9 3.5 0.00 0.00 0.00 78 1008.7
20210927061628 56 14 0.9 4.3 0.00 0.00 0.00 77 1008.8
20210927061022 56 14 1.7 4.3 0.00 0.00 0.00 77 1008.7
20210927060521 56 15 1.7 4.3 0.00 0.00 0.00 78 1008.8
20210927060050 56 15 2.6 4.3 0.00 0.00 0.00 77 1008.8
20210927055520 56 13 1.7 3.5 0.00 0.00 0.00 77 1008.7
20210927055019 56 22 1.7 3.5 0.00 0.00 0.00 77 1008.7
20210927054525 56 21 0.9 3.5 0.00 0.00 0.00 77 1008.6
20210927054019 56 21 1.7 3.5 0.00 0.00 0.00 77 1008.6
20210927053518 56 16 1.7 5.2 0.00 0.00 0.00 76 1008.7
20210927053034 56 16 2.6 6.1 0.00 0.00 0.00 76 1008.7
20210927052519 57 5 0.9 4.3 0.00 0.00 0.00 76 1008.6
20210927052016 57 5 2.6 5.2 0.00 0.00 0.00 75 1008.5
20210927051540 57 24 2.6 5.2 0.00 0.00 0.00 75 1008.4
20210927051019 57 17 0.9 4.3 0.00 0.00 0.00 75 1008.4
20210927050513 58 11 2.6 4.3 0.00 0.00 0.00 74 1008.5
20210927050102 58 11 1.7 5.2 0.00 0.00 0.00 74 1008.4
20210927045511 58 5 2.6 5.2 0.00 0.00 0.00 74 1008.4
20210927045010 58 21 1.7 5.2 0.00 0.00 0.00 74 1008.3
20210927044509 58 19 1.7 5.2 0.00 0.00 0.00 73 1008.2
20210927044013 58 34 2.6 6.1 0.00 0.00 0.00 72 1008.3
20210927043514 59 17 2.6 4.3 0.00 0.00 0.00 72 1008.2
20210927043010 59 16 1.7 4.3 0.00 0.00 0.00 71 1008.3
20210927042509 59 12 1.7 4.3 0.00 0.00 0.00 71 1008.3
20210927042008 59 13 2.6 4.3 0.00 0.00 0.00 70 1008.2
20210927041509 60 12 1.7 5.2 0.00 0.00 0.00 69 1008.3
20210927041008 60 5 1.7 5.2 0.00 0.00 0.00 68 1008.2
20210927040011 61 10 1.7 7.8 0.00 0.00 0.00 67 1008.1
20210927035016 61 18 4.3 7.8 0.00 0.00 0.00 66 1008.1
20210927034510 62 12 3.5 7.0 0.00 0.00 0.00 67 1008.1
20210927034007 62 11 1.7 5.2 0.00 0.00 0.00 67 1008.2
20210927033506 62 347 1.7 7.0 0.00 0.00 0.00 66 1008.3
20210927033005 62 318 1.7 7.0 0.00 0.00 0.00 66 1008.1
20210927032506 62 332 3.5 7.0 0.00 0.00 0.00 66 1008.0
20210927032004 63 5 1.7 5.2 0.00 0.00 0.00 65 1008.0
20210927031509 63 5 1.7 5.2 0.00 0.00 0.00 65 1007.9
20210927030504 63 355 0.9 5.2 0.00 0.00 0.00 65 1007.9
20210927030005 63 355 1.7 5.2 0.00 0.00 0.00 65 1007.9
20210927025511 64 360 1.7 3.5 0.00 0.00 0.00 64 1007.8
20210927025003 64 338 0.9 5.2 0.00 0.00 0.00 65 1007.8
20210927024100 64 12 1.7 5.2 0.00 0.00 0.00 63 1007.6
20210927023559 65 5 2.6 5.2 0.00 0.00 0.00 64 1007.5
20210927023215 65 9 1.7 4.3 0.00 0.00 0.00 65 1007.3
20210927022619 65 5 0.9 3.5 0.00 0.00 0.00 65 1007.3
20210927022058 65 5 0.9 3.5 0.00 0.00 0.00 66 1007.3
20210927021628 65 5 0.9 3.5 0.00 0.00 0.00 66 1007.2
20210927021137 65 360 0.9 2.6 0.00 0.00 0.00 67 1007.2
20210927020556 64 355 0.0 1.7 0.00 0.00 0.00 68 1007.1
20210927020114 64 355 0.0 1.7 0.00 0.00 0.00 68 1006.9
20210927015609 64 355 0.0 1.7 0.00 0.00 0.00 69 1006.9
20210927015115 64 355 0.0 1.7 0.00 0.00 0.00 68 1007.0
20210927014745 64 355 0.0 1.7 0.00 0.00 0.00 67 1006.8
20210927014113 65 355 0.0 1.7 0.00 0.00 0.00 66 1006.7
20210927013634 65 355 0.0 0.0 0.00 0.00 0.00 65 1006.7
20210927013132 65 355 0.0 0.0 0.00 0.00 0.00 65 1006.6
20210927012552 65 355 0.0 0.0 0.00 0.00 0.00 65 1006.6
20210927012107 66 355 0.0 0.0 0.00 0.00 0.00 65 1006.7
20210927011649 66 355 0.0 0.0 0.00 0.00 0.00 64 1006.6
20210927011100 67 355 0.0 0.9 0.00 0.00 0.00 62 1006.5
20210927010551 67 355 0.0 1.7 0.00 0.00 0.00 62 1006.4
20210927010114 67 355 0.0 0.9 0.00 0.00 0.00 61 1006.4
20210927005610 68 355 0.0 1.7 0.00 0.00 0.00 61 1006.4
20210927005051 68 355 0.0 2.6 0.00 0.00 0.00 59 1006.4
20210927004638 69 355 0.9 3.5 0.00 0.00 0.00 58 1006.3
20210927004101 70 355 0.9 3.5 0.00 0.00 0.00 57 1006.2
20210927003625 70 355 0.9 4.3 0.00 0.00 0.00 57 1006.1
20210927003103 70 355 1.7 4.3 0.00 0.00 0.00 57 1006.0
20210927002550 71 5 1.7 4.3 0.00 0.00 0.00 55 1005.9
20210927002049 71 13 2.6 4.3 0.00 0.00 0.00 55 1005.8
20210927001616 71 349 2.6 5.2 0.00 0.00 0.00 55 1005.7
20210927001059 72 360 2.6 5.2 0.00 0.00 0.00 54 1005.6
20210927000602 72 12 2.6 4.3 0.00 0.00 0.00 53 1005.5
20210927000104 73 5 2.6 5.2 0.00 0.00 0.00 52 1005.5
20210926235549 74 13 1.7 5.2 0.00 0.00 0.00 52 1005.4
20210926235052 74 23 1.7 4.3 0.00 0.00 0.00 50 1005.4
20210926234600 75 18 1.7 7.0 0.00 0.00 0.00 49 1005.4
20210926234053 76 20 2.6 7.0 0.00 0.00 0.00 49 1005.4
20210926233548 75 13 1.7 4.3 0.00 0.00 0.00 49 1005.2
20210926233152 76 14 1.7 5.2 0.00 0.00 0.00 48 1005.2
20210926232547 76 21 2.6 7.8 0.00 0.00 0.00 47 1005.2
20210926232107 76 32 3.5 9.6 0.00 0.00 0.00 46 1005.1
20210926231553 77 20 3.5 9.6 0.00 0.00 0.00 45 1005.2
20210926231050 77 22 3.5 10.4 0.00 0.00 0.00 44 1005.1
20210926230554 77 350 4.3 10.4 0.00 0.00 0.00 45 1005.0
20210926230139 78 5 5.2 10.4 0.00 0.00 0.00 45 1005.0
20210926225544 78 15 5.2 10.4 0.00 0.00 0.00 45 1004.9
20210926225044 78 24 4.3 9.6 0.00 0.00 0.00 45 1004.8
20210926224604 79 42 4.3 11.3 0.00 0.00 0.00 43 1004.8
20210926224043 79 11 4.3 11.3 0.00 0.00 0.00 44 1004.6
20210926223545 79 18 5.2 11.3 0.00 0.00 0.00 43 1004.6
20210926223106 79 5 3.5 9.6 0.00 0.00 0.00 44 1004.6
20210926222540 80 360 3.5 9.6 0.00 0.00 0.00 42 1004.6
20210926222040 80 355 5.2 9.6 0.00 0.00 0.00 42 1004.7
20210926221040 80 26 5.2 10.4 0.00 0.00 0.00 43 1004.6
20210926220540 80 15 4.3 13.0 0.00 0.00 0.00 41 1004.5
20210926220052 81 355 6.1 13.0 0.00 0.00 0.00 41 1004.5
20210926215549 80 10 3.5 8.7 0.00 0.00 0.00 42 1004.5
20210926215047 80 18 3.5 8.7 0.00 0.00 0.00 43 1004.5
20210926214629 81 345 2.6 8.7 0.00 0.00 0.00 41 1004.4
20210926214038 81 15 3.5 8.7 0.00 0.00 0.00 41 1004.4
20210926213539 81 360 3.5 7.8 0.00 0.00 0.00 42 1004.4
20210926213209 81 290 3.5 8.7 0.00 0.00 0.00 43 1004.3
20210926212544 81 5 3.5 8.7 0.00 0.00 0.00 42 1004.3
20210926212058 81 333 1.7 7.0 0.00 0.00 0.00 41 1004.3
20210926211612 82 360 2.6 7.0 0.00 0.00 0.00 41 1004.1
20210926211043 82 285 2.6 6.1 0.00 0.00 0.00 43 1004.1
20210926210540 82 360 1.7 8.7 0.00 0.00 0.00 41 1004.0
20210926210043 82 336 3.5 8.7 0.00 0.00 0.00 43 1004.0
20210926205537 82 328 4.3 8.7 0.00 0.00 0.00 44 1004.0
20210926205037 82 346 1.7 5.2 0.00 0.00 0.00 40 1003.9
20210926204633 82 351 1.7 7.8 0.00 0.00 0.00 41 1003.8
20210926204054 82 329 1.7 7.8 0.00 0.00 0.00 41 1003.7
20210926203536 82 9 2.6 8.7 0.00 0.00 0.00 40 1003.7
20210926203114 82 18 1.7 8.7 0.00 0.00 0.00 43 1003.6
20210926202542 82 317 3.5 7.0 0.00 0.00 0.00 40 1003.6
20210926202039 82 313 2.6 6.1 0.00 0.00 0.00 39 1003.5
20210926201624 82 35 1.7 7.0 0.00 0.00 0.00 41 1003.5
20210926201039 82 342 3.5 7.0 0.00 0.00 0.00 40 1003.5
20210926200536 82 320 1.7 7.0 0.00 0.00 0.00 40 1003.6
20210926200048 82 30 1.7 5.2 0.00 0.00 0.00 41 1003.6
20210926195551 82 20 2.6 5.2 0.00 0.00 0.00 41 1003.6
20210926195031 81 321 0.9 3.5 0.00 0.00 0.00 41 1003.7
20210926194629 81 298 1.7 3.5 0.00 0.00 0.00 41 1003.7
20210926194030 81 271 0.9 7.0 0.00 0.00 0.00 40 1003.8
20210926193557 81 247 1.7 7.0 0.00 0.00 0.00 42 1003.8
20210926193029 81 271 3.5 7.0 0.00 0.00 0.00 41 1003.9
20210926192533 80 36 0.9 3.5 0.00 0.00 0.00 42 1003.9
20210926192037 80 320 1.7 3.5 0.00 0.00 0.00 41 1004.0
20210926191544 79 281 0.9 3.5 0.00 0.00 0.00 42 1004.0
20210926191025 79 283 0.0 2.6 0.00 0.00 0.00 44 1004.0
20210926190532 79 277 0.0 5.2 0.00 0.00 0.00 46 1004.0
20210926190113 79 282 1.7 5.2 0.00 0.00 0.00 46 1004.1
20210926185522 79 323 1.7 4.3 0.00 0.00 0.00 45 1004.1
20210926185021 79 319 2.6 4.3 0.00 0.00 0.00 47 1004.1
20210926184544 79 323 0.9 4.3 0.00 0.00 0.00 45 1004.1
20210926184019 79 333 0.9 3.5 0.00 0.00 0.00 45 1004.2
20210926183530 78 209 1.7 3.5 0.00 0.00 0.00 46 1004.1
20210926183123 77 290 1.7 3.5 0.00 0.00 0.00 48 1004.1
20210926182018 78 297 1.7 5.2 0.00 0.00 0.00 45 1004.2
20210926181521 77 17 2.6 5.2 0.00 0.00 0.00 47 1004.2
20210926181018 77 311 1.7 3.5 0.00 0.00 0.00 46 1004.1
20210926180515 77 313 1.7 4.3 0.00 0.00 0.00 49 1004.2
20210926180027 77 347 0.9 3.5 0.00 0.00 0.00 49 1004.2
20210926175513 75 285 0.0 2.6 0.00 0.00 0.00 51 1004.2
20210926175035 75 322 0.9 2.6 0.00 0.00 0.00 51 1004.3
20210926174546 75 262 0.0 2.6 0.00 0.00 0.00 51 1004.3
20210926174026 75 169 0.9 2.6 0.00 0.00 0.00 55 1004.3
20210926173509 74 167 0.9 2.6 0.00 0.00 0.00 56 1004.3
20210926173009 74 167 0.0 2.6 0.00 0.00 0.00 55 1004.3
20210926172007 74 166 0.9 2.6 0.00 0.00 0.00 57 1004.4
20210926171526 73 166 1.7 3.5 0.00 0.00 0.00 54 1004.4
20210926171009 72 166 0.9 4.3 0.00 0.00 0.00 57 1004.4
20210926170504 72 166 2.6 4.3 0.00 0.00 0.00 57 1004.4
20210926170004 70 145 0.9 4.3 0.00 0.00 0.00 60 1004.4
20210926165500 70 145 0.9 4.3 0.00 0.00 0.00 57 1004.5
20210926164656 70 184 0.9 4.3 0.00 0.00 0.00 58 1004.6
20210926164058 69 174 1.7 4.3 0.00 0.00 0.00 62 1004.7
20210926163557 69 185 0.9 3.5 0.00 0.00 0.00 59 1004.7
20210926163139 69 188 0.0 4.3 0.00 0.00 0.00 58 1004.7
20210926162105 67 193 1.7 4.3 0.00 0.00 0.00 59 1004.7
20210926161650 67 207 0.9 5.2 0.00 0.00 0.00 60 1004.7
20210926161102 67 196 2.6 5.2 0.00 0.00 0.00 60 1004.7
20210926160552 67 234 0.9 5.2 0.00 0.00 0.00 60 1004.7
20210926160147 67 170 2.6 5.2 0.00 0.00 0.00 61 1004.7
20210926155545 67 184 1.7 6.1 0.00 0.00 0.00 61 1004.7
20210926155118 66 182 0.0 5.2 0.00 0.00 0.00 62 1004.7
20210926154633 66 181 2.6 5.2 0.00 0.00 0.00 62 1004.7
20210926154043 65 193 2.6 6.1 0.00 0.00 0.00 63 1004.7
20210926153543 65 181 2.6 6.1 0.00 0.00 0.00 63 1004.6
20210926153102 64 186 1.7 6.1 0.00 0.00 0.00 67 1004.6
20210926152540 63 177 2.6 5.2 0.00 0.00 0.00 67 1004.7
20210926152040 63 174 2.6 5.2 0.00 0.00 0.00 69 1004.8
20210926151543 61 146 1.7 3.5 0.00 0.00 0.00 70 1004.8
20210926151036 60 144 0.9 6.1 0.00 0.00 0.00 71 1005.0
20210926150539 60 144 2.6 6.1 0.00 0.00 0.00 69 1005.1
20210926150116 61 139 1.7 4.3 0.00 0.00 0.00 68 1005.0
20210926145609 60 142 2.6 4.3 0.00 0.00 0.00 68 1005.0
20210926145048 59 136 2.6 6.1 0.00 0.00 0.00 70 1005.0
20210926144530 59 128 1.7 6.1 0.00 0.00 0.00 71 1004.7
20210926144027 59 171 1.7 3.5 0.00 0.00 0.00 70 1004.8
20210926143526 58 171 0.9 6.1 0.00 0.00 0.00 72 1004.7
20210926143107 58 209 1.7 6.1 0.00 0.00 0.00 72 1004.7
20210926142522 58 154 2.6 6.1 0.00 0.00 0.00 73 1004.7
20210926142029 57 136 0.9 6.1 0.00 0.00 0.00 73 1004.8
20210926141523 56 143 0.9 6.1 0.00 0.00 0.00 74 1004.9
20210926141019 56 140 3.5 6.1 0.00 0.00 0.00 74 1004.8
20210926140525 55 171 1.7 3.5 0.00 0.00 0.00 75 1004.9
20210926140048 55 171 2.6 4.3 0.00 0.00 0.00 76 1005.0
20210926135518 54 171 2.6 3.5 0.00 0.00 0.00 76 1004.8
20210926135035 54 171 1.7 4.3 0.00 0.00 0.00 76 1004.9
20210926134518 54 171 2.6 4.3 0.00 0.00 0.00 76 1004.8
20210926134023 54 171 1.7 3.5 0.00 0.00 0.00 76 1004.9
20210926133517 53 182 1.7 3.5 0.00 0.00 0.00 76 1004.9
20210926133024 53 182 0.0 5.2 0.00 0.00 0.00 76 1004.9
20210926132519 53 182 1.7 5.2 0.00 0.00 0.00 77 1004.8
20210926132022 53 180 0.9 5.2 0.00 0.00 0.00 76 1004.8
20210926131534 52 180 2.6 5.2 0.00 0.00 0.00 78 1004.8
20210926131014 52 178 1.7 5.2 0.00 0.00 0.00 78 1004.9
20210926130535 52 186 0.0 6.1 0.00 0.00 0.00 77 1004.9
20210926130029 51 184 2.6 7.0 0.00 0.00 0.00 78 1004.9
20210926125520 51 181 2.6 7.0 0.00 0.00 0.00 78 1004.8
20210926125011 51 189 2.6 7.8 0.00 0.00 0.00 78 1004.8
20210926124016 51 178 3.5 6.1 0.00 0.00 0.00 78 1004.8
20210926123510 51 200 2.6 7.0 0.00 0.00 0.00 78 1004.8
20210926123015 51 171 2.6 9.6 0.00 0.00 0.00 77 1004.8
20210926122507 52 194 3.5 9.6 0.00 0.00 0.00 77 1004.8
20210926122010 52 163 3.5 7.8 0.00 0.00 0.00 77 1004.9
20210926121512 52 186 3.5 7.8 0.00 0.00 0.00 77 1004.8
20210926121011 51 133 3.5 7.8 0.00 0.00 0.00 79 1004.8
20210926120505 51 182 0.9 3.5 0.00 0.00 0.00 79 1004.7
20210926120015 52 182 0.9 4.3 0.00 0.00 0.00 79 1004.8
20210926115503 52 181 1.7 6.1 0.00 0.00 0.00 78 1004.6
20210926115006 52 180 3.5 6.1 0.00 0.00 0.00 77 1004.5
20210926114635 52 197 1.7 5.2 0.00 0.00 0.00 77 1004.7
20210926114059 53 205 1.7 9.6 0.00 0.00 0.00 77 1004.8
20210926113333 53 123 2.6 6.1 0.00 0.00 0.00 77 1004.8
20210926112558 53 175 2.6 5.2 0.00 0.00 0.00 77 1004.8
20210926112112 52 194 3.5 7.0 0.00 0.00 0.00 77 1004.8
20210926111755 53 178 3.5 7.0 0.00 0.00 0.00 77 1004.8
20210926111102 53 168 3.5 8.7 0.00 0.00 0.00 76 1004.8
20210926110611 53 165 3.5 8.7 0.00 0.00 0.00 76 1004.9
20210926110140 53 163 2.6 7.8 0.00 0.00 0.00 76 1004.9
20210926105556 53 190 2.6 7.0 0.00 0.00 0.00 76 1005.0
20210926105112 53 182 2.6 6.1 0.00 0.00 0.00 76 1005.0
20210926104706 53 184 2.6 7.0 0.00 0.00 0.00 76 1004.9
20210926104057 53 182 3.5 6.1 0.00 0.00 0.00 76 1004.9
20210926103159 53 135 2.6 7.0 0.00 0.00 0.00 75 1004.9
20210926102558 53 183 2.6 7.8 0.00 0.00 0.00 75 1005.0
20210926102126 53 142 3.5 10.4 0.00 0.00 0.00 76 1004.9
20210926101600 53 196 4.3 10.4 0.00 0.00 0.00 75 1004.8
20210926101051 53 175 4.3 9.6 0.00 0.00 0.00 75 1004.9
20210926100551 53 154 4.3 8.7 0.00 0.00 0.00 75 1004.9
20210926100106 53 179 3.5 7.8 0.00 0.00 0.00 75 1005.0
20210926095549 53 183 2.6 5.2 0.00 0.00 0.00 76 1004.9
20210926095048 53 187 1.7 7.0 0.00 0.00 0.00 74 1005.0
20210926094718 53 175 2.6 7.0 0.00 0.00 0.00 74 1005.0
20210926094046 53 188 2.6 6.1 0.00 0.00 0.00 75 1005.0
20210926093545 53 173 2.6 6.1 0.00 0.00 0.00 75 1005.1
20210926093117 53 174 2.6 7.0 0.00 0.00 0.00 74 1005.1
20210926092609 53 184 2.6 7.0 0.00 0.00 0.00 74 1005.2
20210926092051 53 200 2.6 6.1 0.00 0.00 0.00 75 1005.2
20210926091626 53 177 2.6 7.0 0.00 0.00 0.00 75 1005.1
20210926091102 53 185 3.5 7.0 0.00 0.00 0.00 75 1005.1
20210926090544 53 198 3.5 7.0 0.00 0.00 0.00 76 1005.2
20210926090108 53 186 2.6 6.1 0.00 0.00 0.00 75 1005.1
20210926085543 53 184 2.6 6.1 0.00 0.00 0.00 75 1005.1
20210926085050 53 181 2.6 6.1 0.00 0.00 0.00 75 1005.1
20210926084621 53 172 3.5 6.1 0.00 0.00 0.00 75 1005.2
20210926084137 53 180 2.6 6.1 0.00 0.00 0.00 75 1005.1
20210926083548 53 184 2.6 7.0 0.00 0.00 0.00 75 1005.2
20210926083128 53 186 1.7 6.1 0.00 0.00 0.00 75 1005.2
20210926082539 53 179 2.6 6.1 0.00 0.00 0.00 75 1005.3
20210926082038 54 190 3.5 7.0 0.00 0.00 0.00 75 1005.3
20210926081541 54 169 3.5 7.8 0.00 0.00 0.00 74 1005.3
20210926081046 54 157 3.5 7.8 0.00 0.00 0.00 75 1005.4
20210926080603 54 181 2.6 6.1 0.00 0.00 0.00 75 1005.5
20210926080037 54 175 3.5 7.0 0.00 0.00 0.00 74 1005.5
20210926075537 54 190 3.5 7.8 0.00 0.00 0.00 74 1005.6
20210926075032 54 176 2.6 5.2 0.00 0.00 0.00 74 1005.7
20210926074623 53 178 1.7 5.2 0.00 0.00 0.00 75 1005.7
20210926074054 53 177 2.6 5.2 0.00 0.00 0.00 75 1005.6
20210926073531 54 173 2.6 4.3 0.00 0.00 0.00 74 1005.6
20210926073117 54 162 2.6 5.2 0.00 0.00 0.00 74 1005.7
20210926072528 54 180 1.7 5.2 0.00 0.00 0.00 73 1005.7
20210926072036 54 138 1.7 4.3 0.00 0.00 0.00 73 1005.7
20210926071557 54 185 2.6 6.1 0.00 0.00 0.00 72 1005.6
20210926071032 55 178 2.6 6.1 0.00 0.00 0.00 72 1005.6
20210926070534 55 200 2.6 6.1 0.00 0.00 0.00 72 1005.5
20210926070108 55 173 2.6 6.1 0.00 0.00 0.00 71 1005.5
20210926065528 55 185 2.6 6.1 0.00 0.00 0.00 71 1005.5
20210926065025 55 179 2.6 6.1 0.00 0.00 0.00 70 1005.6